Regional Weather Roundup
Issued by NWS Glasgow, MT

Home | Current Version | Previous Version | Text Only | Print | Product List | Glossary On
Versions: 1 2 3 4 5 6 7 8 9 10 11 12 13 14 15 16 17 18 19 20 21 22 23 24 25 26 27 28 29 30 31 32 33 34 35 36 37 38 39 40 41 42 43 44 45 46 47 48 49 50
000
ASUS45 KGGW 241915
RWRGGW
HOURLY WEATHER ROUNDUP FOR NORTHEAST MONTANA
NATIONAL WEATHER SERVICE GLASGOW MONTANA
100 PM MDT THU JUL 24 2014

NOTE: "FAIR" INDICATES FEW OR NO CLOUDS BELOW 12,000 FEET WITH NO
SIGNIFICANT WEATHER AND/OR OBSTRUCTIONS TO VISISBILITY.

NORTHEAST MONTANA


CITY           SKY/WX    TMP DP  RH WIND       PRES   REMARKS
GLASGOW        MOSUNNY   89  57  33 SE16G22   29.71F
PLENTYWOOD       N/A     81  63  54 SE8         N/A
WOLF POINT     MOSUNNY   89  59  36 E14       29.70F
JORDAN           N/A     91  57  31 S7G18     29.72F
WINNETT          N/A     86  59  39 NE3         N/A
SIDNEY         PTSUNNY   75  66  73 E8        29.74F
GLENDIVE       PTSUNNY   79  63  57 SE15      29.75F
MALTA            N/A     84  66  54 W3          N/A
SCOBEY           N/A     81  59  47 CALM      29.77F

FORT PECK REPORTS


CITY           SKY/WX    TMP DP  RH WIND       PRES   REMARKS
FORT PECK        N/A     86  59  39 E15         N/A
THE PINES        N/A     85  56  37 S6          N/A

SOUTHEAST MONTANA


CITY           SKY/WX    TMP DP  RH WIND       PRES   REMARKS
BILLINGS       MOSUNNY   89  52  28 SW5       29.79F
MILES CITY     SUNNY     91  60  35 SE7       29.73F
BAKER          SUNNY     85  63  47 SE8       29.79F
LIVINGSTON     MOSUNNY   89  38  16 W16G28    29.86F

CENTRAL MONTANA


CITY           SKY/WX    TMP DP  RH WIND       PRES   REMARKS
HAVRE          MOSUNNY   81  54  39 NW18      29.80R
LEWISTOWN      SUNNY     79  55  43 NW12G18   29.88S
GREAT FALLS    PTSUNNY   70  40  33 W36G45    29.90S
CUT BANK       CLOUDY    61  35  37 W40G59    29.95R
HELENA         MOSUNNY   70  44  39 W29G40    29.98R
BUTTE          MOSUNNY   69  40  34 NW18G30   30.06R
BOZEMAN        SUNNY     79  49  34 W15       29.93S

WESTERN MONTANA


CITY           SKY/WX    TMP DP  RH WIND       PRES   REMARKS
MISSOULA       SUNNY     66  36  32 W17G30    30.13F
KALISPELL      NOT AVBL

NORTH DAKOTA


CITY           SKY/WX    TMP DP  RH WIND       PRES   REMARKS
WILLISTON      MOSUNNY   79  63  57 S10       29.80R
DICKINSON      CLOUDY    73  64  73 SE16      29.79F
MINOT          SUNNY     80  64  58 S18G24    29.78F
BISMARCK       CLOUDY    77  62  59 SE24G31   29.83F

SOUTHERN SASKATCHEWAN


CITY           SKY/WX    TMP DP  RH WIND       PRES   REMARKS
REGINA         MOSUNNY   81  64  57 S17       29.76F
MOOSE JAW      PTSUNNY   81  64  57 S9        29.74F
ESTEVAN        MOSUNNY   77  64  65 S6        29.80F
SWIFT CURRENT  LGT RAIN  73  64  73 S12       29.76F



USA.gov is the U.S. government's official web portal to all federal, state and local government web resources and services.